Location: Seven Kings
(51.5667°N, 0.1000°E)
Time: 11:38:19
(UTC+00:00)

Lacrosse 5 - Pass Details

Date: 29 October 2020
Orbit: 716 x 723 km, 57.0° (Epoch: 06 November)

Event Time Altitude Azimuth Distance (km) Brightness Sun altitude
Rises 18:10:20 0° 287° (WNW) 3,124 6.6 -14.9°
Reaches altitude 10° 18:12:48 10° 293° (WNW) 2,203 5.4 -15.3°
Maximum altitude 18:17:42 47° 7° (N) 952 2.4 -16.1°
Enters shadow 18:20:12 26° 67° (ENE) 1,392 2.8 -16.5°
